RH
12 16 16 27 25 17 22 30 38 31 26 35 32 29 26 33 50 43 45 71 86 93 96 94 92 92 97 96 99 94 72 65 71 67 57 52 50 47 50 50 46 47 37 20 11 10 10 10 9 9 8 7 7 6 9 14 17 18 18 17 14 11 10 10 10 11 11 13 14 15 18 21 22 20 19 18 17 15 12 12 12 13 17 21 22 22
13 18 22 30 30 23 20 25 26 17 34 53 41 33 24 29 53 47 39 55 68 80 84 84 87 88 92 95 98 97 84 77 80 77 63 55 55 51 50 48 44 48 46 27 13 9 10 10 8 8 9 7 7 6 6 11 14 16 18 18 15 12 10 9 9 10 11 12 14 15 18 21 22 21 19 17 17 16 13 11 12 13 17 20 20 21
15 19 25 29 28 33 29 24 22 14 41 68 54 43 32 33 57 49 27 29 42 61 72 79 83 83 88 94 98 101 96 92 94 90 77 64 60 57 52 45 42 50 53 35 17 10 9 10 8 7 9 7 6 7 6 8 11 14 17 19 17 13 11 10 9 9 11 13 14 15 17 19 20 20 19 17 17 17 15 12 12 13 17 18 18 20
18 20 23 24 21 27 26 25 26 16 47 82 68 62 57 45 57 59 43 30 26 40 62 78 82 81 87 90 91 98 99 98 100 99 93 83 71 65 60 49 44 51 58 50 32 19 10 9 10 6 7 9 7 6 6 6 8 10 14 18 19 15 11 10 10 10 11 13 14 14 13 14 16 18 19 19 18 18 17 16 13 13 15 16 17 18
17 15 14 16 14 17 18 26 26 18 59 92 75 72 72 53 55 66 63 48 30 28 43 64 76 79 84 90 91 93 97 97 97 99 99 97 88 80 74 60 49 49 59 64 56 41 22 10 10 7 6 8 8 7 6 6 6 7 10 14 18 18 14 10 8 9 11 12 12 11 11 12 13 15 18 20 19 19 19 19 18 16 16 15 16 17
10 10 14 13 11 16 20 31 30 30 70 90 76 81 79 63 64 66 54 40 39 41 38 41 60 78 82 88 95 94 95 97 94 93 94 98 98 95 90 76 57 47 53 66 71 65 45 20 9 8 7 6 7 8 6 6 5 6 7 8 12 16 17 14 10 8 9 9 9 9 10 11 12 13 15 18 20 20 20 20 21 21 21 20 19 18
7 10 14 13 18 24 24 35 34 33 63 78 79 88 77 57 56 57 43 32 47 65 56 38 48 78 82 76 85 89 91 95 94 92 89 92 97 98 99 92 73 55 48 60 74 76 66 42 16 7 8 6 6 8 7 7 6 5 6 6 8 10 13 14 12 10 8 8 7 7 9 10 11 12 13 15 17 20 21 21 21 21 22 23 22 22
9 10 15 15 20 28 35 56 51 31 50 71 74 75 60 42 42 44 36 30 38 52 54 38 37 67 81 69 69 76 82 87 91 93 90 88 93 95 97 99 90 71 53 53 69 77 75 60 29 9 9 8 7 8 6 7 7 5 6 6 6 6 8 10 10 10 8 7 7 6 7 7 8 10 12 14 14 17 20 21 22 21 21 22 22 23
11 12 17 16 25 40 44 55 47 24 36 51 44 46 44 40 42 39 33 29 25 30 46 43 30 47 70 67 58 59 68 76 81 87 89 89 91 93 94 97 97 89 71 57 62 73 72 62 41 21 14 10 8 8 6 7 7 6 6 5 6 6 6 7 7 8 7 6 7 6 6 6 6 8 9 12 14 14 16 19 22 22 21 22 21 21
15 15 18 18 30 47 36 28 25 19 36 43 30 30 34 33 33 28 28 28 22 36 65 68 45 40 60 69 59 53 59 67 72 76 83 88 88 89 90 90 91 96 92 74 64 67 64 59 53 42 30 17 10 9 8 7 6 6 6 5 6 5 5 6 6 6 7 7 8 7 7 7 7 8 8 12 15 16 15 16 19 21 22 22 21 21
20 20 22 22 27 31 23 22 24 21 32 37 25 27 32 26 18 18 25 24 29 59 81 73 46 34 55 69 58 53 58 60 65 67 72 82 85 85 85 85 85 90 100 93 76 66 59 55 56 57 51 34 18 11 8 8 7 6 6 5 6 6 5 5 5 6 6 7 9 9 9 9 10 11 12 14 17 18 17 16 17 20 22 22 22 22
25 27 26 24 25 23 23 28 27 22 24 27 28 33 40 36 25 32 39 29 39 70 75 59 34 20 45 63 53 54 57 52 58 61 60 68 77 83 83 83 83 83 91 98 91 78 65 55 51 59 64 49 33 25 12 7 8 7 7 6 5 6 6 5 5 5 6 6 8 9 9 11 11 13 15 17 19 20 18 17 17 18 19 20 20 21
28 31 28 27 26 24 29 32 29 27 23 28 32 24 36 54 48 57 71 56 53 66 63 55 37 19 36 51 46 52 52 44 48 52 51 55 64 77 82 82 83 83 82 87 94 93 83 70 56 56 64 56 50 47 25 8 9 7 6 7 6 5 5 6 6 5 5 6 7 8 9 11 13 15 17 18 20 19 18 17 17 16 17 18 18 19
35 30 25 28 29 27 36 44 45 40 27 31 40 31 48 75 63 61 76 67 58 59 51 41 26 19 34 40 35 39 38 32 36 40 42 44 47 61 75 79 81 85 83 78 82 89 90 88 74 58 55 54 60 62 37 15 11 9 7 7 6 7 6 5 6 5 5 6 6 8 10 13 15 16 17 18 19 18 17 16 17 16 15 17 17 18
52 48 32 27 31 32 41 49 51 49 37 34 40 39 56 78 70 61 67 69 66 57 47 39 24 20 37 45 38 32 25 21 23 26 29 33 35 44 60 72 75 80 84 81 76 74 77 86 87 75 61 52 54 58 46 29 17 11 9 8 6 7 7 6 6 6 6 6 6 8 11 14 15 16 16 17 18 18 17 16 17 16 15 16 17 18
48 53 38 30 37 39 42 46 43 45 46 42 37 36 47 62 59 51 54 60 54 44 46 51 42 30 32 41 37 25 20 18 17 17 18 20 25 31 44 61 70 72 78 83 81 74 68 70 78 86 82 66 51 46 47 45 35 19 10 9 8 7 7 7 6 6 6 6 7 9 12 15 15 15 15 16 17 18 18 17 17 17 17 18 18 18
47 50 38 35 43 42 43 47 43 45 50 44 40 40 42 45 42 41 53 56 41 41 55 55 50 45 39 40 38 29 25 21 16 16 16 15 17 21 29 45 60 67 70 77 82 80 74 67 67 77 87 85 72 58 50 49 49 38 21 11 8 8 7 7 7 6 6 6 7 9 12 14 14 14 14 14 16 17 17 17 18 18 18 19 21 20
53 55 42 38 45 44 45 47 45 45 46 46 49 46 37 40 43 39 50 58 51 57 65 53 47 49 46 47 47 39 31 26 22 20 21 21 17 17 20 27 43 57 63 69 75 79 80 76 69 69 78 87 89 82 68 56 50 45 36 24 14 9 8 8 7 7 7 8 7 8 11 14 14 14 14 14 15 16 16 18 18 19 20 21 22 21
49 56 48 40 44 49 48 47 47 45 43 47 52 44 35 49 61 48 44 54 58 66 70 56 43 39 37 41 42 37 33 32 32 29 31 35 28 23 22 20 25 37 50 59 64 69 75 79 77 71 72 79 84 88 88 79 64 52 47 39 26 16 10 9 9 8 9 8 8 8 10 12 13 13 14 15 16 17 17 18 19 19 21 21 21 21
47 55 55 47 45 50 49 50 55 51 45 45 44 38 33 41 51 46 43 43 44 59 69 60 53 50 44 37 31 31 31 32 34 34 37 40 35 31 31 27 22 22 30 43 53 58 63 70 78 78 75 72 73 80 87 87 77 64 58 50 37 25 15 11 11 9 9 10 8 8 9 11 13 13 14 15 17 18 17 17 18 18 19 20 20 20
48 52 57 49 44 50 50 52 60 55 48 46 43 41 37 37 38 36 42 43 35 44 54 54 62 63 48 36 33 31 28 26 30 32 33 34 32 32 32 31 29 24 21 25 35 45 50 54 64 73 75 72 70 73 79 83 79 74 74 65 47 35 25 17 14 11 10 10 9 8 8 10 12 12 13 15 15 15 15 15 15 16 16 17 18 19
49 52 57 51 50 55 48 45 50 49 46 47 51 56 48 40 39 37 50 56 41 38 43 46 57 54 38 35 37 35 33 32 33 34 33 32 30 29 28 29 32 31 27 23 23 28 35 40 46 56 65 68 69 69 73 78 77 77 81 69 49 40 36 27 19 12 10 10 9 9 8 8 11 12 12 14 14 14 14 14 14 14 15 15 15 16
50 53 56 53 54 54 45 40 43 45 44 41 47 59 53 43 42 43 55 60 45 40 43 40 45 46 38 35 32 29 33 35 37 36 32 31 30 28 27 28 31 34 33 30 28 25 24 27 33 41 49 56 62 66 69 71 70 72 78 71 54 44 38 33 26 15 10 10 9 9 9 7 8 11 13 13 14 14 13 14 15 15 15 14 14 14
50 52 53 51 49 45 39 39 40 40 41 37 36 44 45 45 47 45 50 52 43 42 46 40 43 53 50 38 26 24 27 29 32 33 30 28 27 25 27 28 30 34 35 34 34 33 28 24 25 29 35 42 49 57 63 66 66 67 75 80 73 56 39 33 34 25 12 8 10 9 8 8 7 8 11 13 14 14 14 14 14 16 17 16 14 14
50 52 52 51 49 45 40 38 38 38 37 38 40 44 46 47 45 40 40 42 39 41 41 37 49 66 59 36 22 19 22 24 27 29 29 27 25 26 29 30 31 34 35 35 38 44 42 35 30 26 25 29 37 45 52 60 64 66 70 79 83 75 56 40 38 39 24 10 9 10 8 8 8 7 8 11 13 14 15 15 14 14 16 17 16 15
48 50 51 51 51 56 57 51 50 51 46 44 48 51 50 44 41 39 37 37 38 40 40 36 48 63 51 32 27 23 19 22 24 26 28 26 26 29 31 36 40 41 40 37 37 47 55 53 46 37 29 25 28 34 41 49 58 63 66 71 76 81 78 60 44 44 40 24 12 11 12 10 7 8 8 8 10 13 14 15 15 15 15 16 16 16
48 47 48 48 50 59 65 60 57 58 56 55 55 53 51 47 43 41 41 43 41 38 40 36 39 49 41 30 35 33 28 30 26 23 27 26 27 29 30 34 39 43 46 43 37 42 57 66 63 54 44 35 28 29 34 39 48 58 65 67 66 70 79 77 58 45 45 40 26 14 12 12 8 7 8 7 8 10 12 13 14 14 15 14 15 17
49 48 47 48 48 51 54 54 55 55 53 55 54 51 52 51 49 45 45 49 44 38 40 34 33 50 49 31 30 34 35 36 28 21 23 27 29 30 30 30 32 35 40 43 41 39 48 65 74 69 59 48 36 31 32 35 40 50 61 67 65 61 67 75 72 57 45 42 38 26 14 10 10 9 7 7 8 8 9 11 12 13 13 13 14 15
51 52 49 47 49 50 50 52 54 54 53 54 54 53 52 50 51 49 46 46 40 34 35 31 32 49 48 31 31 36 33 31 27 19 18 24 29 32 33 31 30 30 31 35 40 40 41 53 70 78 74 64 52 39 34 37 39 44 53 63 67 66 65 68 74 73 57 41 42 44 33 17 10 9 9 7 7 7 8 8 9 10 11 11 12 12
49 50 49 47 48 48 49 50 51 51 51 52 51 50 49 46 46 46 44 42 37 30 28 27 31 41 39 35 42 40 30 27 26 21 18 19 22 26 29 28 28 29 29 30 34 38 40 44 57 73 81 77 69 56 45 43 45 46 49 57 66 72 72 71 74 81 77 58 45 47 47 36 20 11 10 9 7 6 7 7 8 8 9 9 10 10
48 48 49 50 49 47 46 46 47 47 47 47 46 44 43 42 41 39 38 36 32 29 25 21 29 38 36 39 45 40 32 30 29 25 22 20 17 19 20 20 21 25 28 29 30 33 39 41 45 58 72 78 77 71 61 54 52 53 53 55 63 70 74 77 79 83 87 79 61 48 44 43 36 24 15 11 10 8 6 6 7 7 7 8 8 8
54 49 48 50 50 46 45 46 46 45 44 43 42 40 39 38 36 34 33 32 29 28 24 22 33 41 38 39 43 39 34 34 31 29 26 23 20 18 16 16 16 17 22 27 28 29 33 39 42 45 55 66 72 72 71 66 61 62 62 59 62 67 70 73 79 85 89 88 80 65 47 37 35 34 26 17 13 12 9 7 6 6 7 7 7 7
56 49 50 53 51 47 48 50 49 47 44 40 36 38 40 38 35 33 31 31 30 29 28 29 35 39 39 41 41 37 35 35 33 31 28 26 24 20 17 16 15 15 17 22 26 27 28 33 39 42 44 50 58 65 70 70 68 68 68 66 64 65 67 67 70 80 90 92 91 84 68 46 32 32 33 25 17 15 13 10 8 7 7 7 7 7
56 51 53 53 53 53 52 54 57 53 42 34 33 39 42 39 37 37 37 38 37 36 37 38 36 36 39 41 40 38 38 36 33 31 29 28 26 24 21 18 16 15 15 16 20 24 25 26 31 38 43 44 48 55 62 66 68 68 69 69 67 65 65 64 64 69 80 90 94 93 88 70 46 32 31 29 22 17 15 14 13 11 9 8 8 8
54 50 46 47 53 54 49 54 62 53 37 34 38 41 43 42 42 44 45 45 44 42 43 43 42 40 40 40 40 40 39 37 34 32 31 30 29 26 24 20 17 15 14 14 14 16 20 25 28 32 39 44 45 47 53 61 67 68 68 69 69 67 64 63 64 64 67 75 84 89 92 87 70 48 33 29 26 21 18 16 14 14 13 12 11 10
51 43 40 46 50 50 49 53 53 42 34 41 43 36 38 44 44 46 48 48 49 47 45 46 46 43 41 41 41 41 40 38 34 32 32 31 30 28 26 23 19 15 12 11 11 11 14 22 28 31 34 40 44 45 48 55 63 67 67 67 67 67 65 63 65 66 66 66 70 77 83 86 82 67 49 37 29 23 22 20 17 16 15 14 14 13
45 35 41 53 49 45 47 47 42 39 43 50 48 39 42 47 44 45 49 51 54 53 49 48 49 46 44 43 42 42 39 36 36 39 39 37 33 29 26 24 22 18 14 10 10 10 10 15 25 32 34 37 42 44 46 50 58 64 67 66 65 64 64 64 64 66 68 67 66 69 76 80 82 76 65 54 44 33 27 24 22 20 17 13 13 13
47 34 42 56 53 44 42 43 46 51 54 56 54 50 50 48 43 44 49 52 55 56 53 51 50 50 48 47 46 44 41 43 50 55 53 48 40 30 25 25 24 21 18 14 12 12 12 13 19 29 36 38 39 42 45 47 53 61 66 67 66 64 63 63 63 63 65 67 66 67 72 80 84 81 74 67 62 54 45 35 29 26 24 19 14 13
53 47 43 48 49 46 45 46 47 48 54 58 57 53 54 54 49 47 48 49 52 57 59 57 55 55 53 52 50 46 46 55 61 60 55 48 38 28 25 25 25 23 21 18 17 18 18 18 20 26 32 36 37 39 42 45 49 55 62 65 66 66 66 65 63 62 62 64 66 67 70 76 84 87 83 74 68 66 63 57 48 43 39 32 24 19
56 59 49 41 44 46 48 50 46 45 55 62 58 56 62 64 59 52 49 51 55 63 67 64 61 61 59 58 56 50 52 59 62 58 53 44 33 27 25 26 26 26 23 21 21 22 22 21 22 23 26 29 32 35 38 41 44 48 54 60 63 66 69 69 67 65 64 64 65 65 66 70 76 82 84 78 73 71 69 68 65 61 57 50 39 32
52 57 51 46 51 51 51 58 59 58 60 62 64 69 70 66 59 53 52 56 63 70 72 67 65 67 66 66 64 58 55 55 53 50 46 38 32 29 26 26 27 26 24 24 24 24 23 22 21 20 20 21 24 27 31 35 39 42 46 52 58 64 69 71 71 70 70 69 67 65 64 64 66 71 73 73 73 71 66 66 66 65 65 63 55 48
54 54 49 47 53 58 61 63 68 71 70 67 75 80 72 60 54 54 59 67 71 73 72 68 68 70 70 72 71 66 61 56 49 46 43 38 34 31 27 26 27 26 25 24 24 24 24 23 21 19 18 16 16 18 21 25 31 36 40 45 51 58 65 70 71 71 70 70 69 68 67 64 63 65 66 67 69 68 67 68 68 65 66 68 67 64
57 53 52 51 51 59 66 63 63 70 69 67 78 85 75 65 63 63 68 71 72 73 73 70 71 72 72 74 74 72 67 60 54 50 45 39 34 31 29 29 27 25 24 23 24 25 24 23 21 18 16 14 13 14 14 16 21 27 33 39 44 50 59 67 69 67 66 66 67 68 69 68 66 65 64 64 65 66 70 74 73 68 66 68 71 74
63 60 66 68 59 59 65 64 62 65 62 63 78 85 79 77 79 76 71 67 68 72 74 73 73 72 71 73 74 74 70 63 57 53 48 42 36 32 31 31 28 26 25 24 25 26 24 22 20 17 15 13 11 12 12 13 14 17 23 31 37 43 52 62 66 64 62 63 65 65 65 65 65 65 65 63 61 62 67 75 75 70 69 71 72 75
65 66 73 74 64 62 69 69 65 62 63 72 83 81 77 81 85 80 72 68 69 74 76 75 75 73 72 73 75 75 71 63 58 55 51 44 38 34 32 31 30 30 28 26 26 25 24 23 22 19 17 13 9 9 10 11 12 13 14 21 28 36 44 54 61 62 61 61 62 61 59 58 58 60 61 62 60 60 65 75 79 75 72 73 73 76
62 66 73 73 68 69 76 76 71 69 72 81 85 79 78 81 82 78 73 69 70 77 79 76 73 71 71 73 74 74 69 61 56 55 53 46 40 36 35 32 31 31 30 28 27 25 24 25 24 23 19 13 8 7 8 10 12 12 12 13 18 26 36 46 55 60 60 58 56 53 51 49 48 51 53 55 58 60 63 71 79 81 80 79 77 80
69 70 75 75 73 77 80 79 79 80 82 84 85 83 81 80 78 77 73 70 72 79 79 76 74 73 73 74 74 72 67 61 56 55 54 49 43 39 37 35 33 31 30 29 29 27 26 26 26 25 20 13 9 6 6 8 11 12 13 12 13 17 26 37 47 54 58 57 54 50 47 43 41 42 43 45 49 53 59 65 73 82 88 89 88 89
66 67 72 74 78 84 87 87 85 85 84 83 85 87 85 82 80 77 71 70 75 80 80 81 82 80 77 75 74 70 66 62 58 55 55 52 46 41 39 38 36 34 32 32 31 30 29 28 27 25 20 15 12 9 6 7 10 12 13 13 12 13 18 27 37 46 51 55 54 51 46 41 38 37 36 37 39 43 49 56 63 73 82 86 89 91
59 64 66 66 71 79 87 94 96 95 95 92 89 88 86 84 81 76 71 72 78 82 84 85 83 77 74 72 72 70 67 64 60 57 56 53 49 44 41 40 39 37 36 35 34 33 32 29 27 24 21 18 17 13 8 6 8 12 15 14 13 13 14 20 29 36 42 48 52 52 48 42 38 35 33 33 33 34 38 44 50 57 63 69 76 82
61 66 66 67 71 72 74 82 88 93 98 98 93 91 90 86 81 76 75 78 81 82 82 80 75 71 70 71 72 71 67 65 62 59 57 55 51 47 43 40 39 39 38 37 37 36 33 31 28 26 24 23 21 17 11 6 6 11 16 17 15 13 14 17 24 30 36 41 45 48 48 43 38 35 35 38 38 36 37 43 50 54 55 56 60 65
61 63 65 68 71 68 66 71 77 84 93 98 97 96 95 89 82 80 80 81 83 84 85 83 79 76 75 75 75 72 67 64 64 62 59 56 52 48 45 42 39 38 37 37 37 36 34 32 31 29 26 25 23 18 13 8 5 8 15 19 19 16 14 16 20 25 30 34 38 42 44 42 38 36 42 54 59 52 46 50 59 64 61 55 50 48
Wind_Speed
12 12 14 15 17 18 17 18 18 15 12 12 10 9 9 8 8 9 8 8 9 10 10 10 8 11 17 14 11 13 14 11 11 12 12 12 11 10 10 10 10 9 8 7 7 8 7 7 7 9 11 10 9 8 8 8 9 10 11 11 12 13 14 15 15 15 14 13 12 11 11 11 11 11 12 12 13 15 16 16 17 17 16 14 13 13
13 14 16 18 19 20 20 19 18 13 10 9 8 8 8 8 9 10 9 8 8 9 9 9 6 5 10 10 6 10 12 9 9 10 11 11 10 10 10 11 11 10 8 7 7 8 8 8 8 10 12 11 10 9 9 9 9 10 11 11 11 13 14 15 15 15 14 13 12 11 11 11 11 11 12 12 13 14 16 17 17 16 15 14 13 12
14 15 17 19 20 20 18 16 14 10 9 9 9 8 7 8 10 11 10 9 8 8 8 8 8 4 6 7 5 7 9 8 8 9 10 10 10 9 10 11 11 10 9 8 7 7 8 9 9 11 12 12 12 10 10 10 10 10 11 11 11 13 15 15 15 14 13 12 12 12 11 11 11 11 11 12 12 13 14 16 17 16 15 14 13 13
16 17 18 18 18 17 15 13 11 9 10 10 10 8 8 9 10 10 9 9 8 9 8 7 8 7 6 6 5 5 6 7 7 8 9 11 11 10 10 10 10 10 9 8 7 7 8 9 10 11 12 12 12 12 11 10 10 10 11 12 12 12 14 15 15 14 13 13 12 11 10 10 10 11 11 11 11 12 13 15 15 15 14 14 13 13
17 16 16 16 15 14 13 12 11 11 10 8 10 10 10 10 11 11 10 11 8 8 10 10 9 8 7 6 5 5 6 7 8 8 9 11 12 11 10 11 11 11 11 10 9 8 8 10 11 12 12 13 13 12 12 11 11 11 11 12 12 13 14 14 15 14 13 12 11 10 9 9 9 9 10 10 10 11 12 13 13 14 13 13 13 12
12 12 12 12 11 9 10 10 10 11 8 6 11 13 12 12 12 12 12 11 7 7 9 10 9 9 9 8 6 6 7 8 9 10 10 10 11 12 13 14 13 12 13 12 12 11 10 11 13 13 13 13 13 13 12 12 11 11 11 11 12 13 13 14 14 13 13 11 10 9 8 8 8 8 9 9 9 10 11 11 12 12 12 12 12 12
7 8 9 9 7 6 7 7 9 11 8 5 13 15 13 13 12 12 13 10 8 10 10 11 11 9 9 11 10 8 8 8 9 10 10 10 11 12 14 16 15 14 14 14 14 13 12 12 12 13 14 14 14 13 13 12 12 11 11 11 12 12 13 13 13 13 13 12 10 9 8 8 8 9 9 9 9 10 10 10 10 11 11 11 11 11
5 7 7 7 6 5 6 5 7 12 11 8 15 15 13 13 11 12 11 9 11 13 12 12 13 10 9 12 13 12 10 9 10 10 10 10 11 12 13 14 15 16 14 15 16 15 14 12 11 12 13 14 15 15 14 13 12 12 12 12 12 12 12 13 13 13 12 12 11 10 10 10 9 9 9 10 10 10 10 10 10 10 10 10 10 10
7 7 7 8 6 4 8 8 8 12 12 9 11 11 10 10 10 11 10 7 8 7 9 12 12 12 11 12 14 15 14 11 10 10 10 10 10 11 12 12 13 16 16 15 16 16 15 13 11 10 11 13 14 15 15 14 14 14 13 13 13 13 13 13 13 12 12 12 12 11 11 11 11 10 10 10 10 10 10 10 10 10 10 10 10 10
8 8 8 9 9 8 9 7 6 9 10 9 9 9 10 11 10 9 7 5 3 1 6 10 11 12 11 12 15 16 16 15 12 11 10 11 11 11 11 11 11 14 17 17 16 16 15 13 11 11 12 12 13 14 16 16 16 15 14 14 13 13 13 13 13 13 12 12 12 13 13 13 12 12 11 11 10 10 10 10 10 10 10 10 10 10
8 8 8 9 9 8 6 3 2 4 6 7 8 7 8 10 9 6 4 2 1 2 7 9 9 10 10 11 15 15 16 17 14 13 12 11 12 12 11 11 10 11 15 17 16 15 15 14 13 12 12 12 12 14 16 17 17 16 16 15 15 14 14 14 14 13 13 13 13 13 13 13 13 12 12 12 11 11 10 11 11 11 10 10 10 9
6 6 6 7 7 5 3 1 1 2 3 3 4 4 4 5 5 3 3 2 3 5 9 9 9 7 8 10 12 15 17 18 17 15 14 12 12 12 12 11 10 10 11 14 15 15 14 14 13 13 13 12 12 14 16 17 17 17 17 17 16 16 15 15 14 14 14 14 14 14 14 13 13 13 13 13 13 13 12 12 12 11 11 10 10 9
7 7 7 6 6 4 3 1 2 3 4 2 2 3 3 4 4 3 5 5 5 8 10 11 10 7 8 10 11 13 16 19 19 17 16 15 13 13 13 12 11 10 9 10 11 13 13 14 14 15 14 14 14 15 16 16 17 18 18 18 17 16 16 15 15 15 15 15 14 14 14 13 13 13 14 14 14 15 14 14 13 12 11 10 9 9
7 7 7 7 5 4 3 1 3 3 4 3 3 3 3 5 5 3 6 5 5 9 11 12 11 8 8 10 11 13 15 17 18 18 18 17 16 15 14 13 12 11 11 11 11 12 13 14 15 16 15 15 16 16 15 15 16 18 18 18 18 17 17 16 16 15 15 15 14 14 14 13 13 13 14 14 15 15 15 14 14 12 11 11 10 9
9 6 5 7 6 4 4 3 4 4 4 2 2 3 4 5 5 3 6 6 6 10 10 10 10 8 8 9 11 13 15 15 16 17 18 18 18 17 17 16 15 13 12 12 13 14 15 15 16 17 17 16 17 16 15 14 15 17 18 19 19 18 18 17 16 16 15 15 14 14 14 13 13 13 14 14 14 15 15 14 13 13 12 11 11 10
12 8 7 7 6 5 4 4 4 3 3 1 1 1 3 4 5 6 7 7 7 8 8 8 8 8 9 9 11 13 14 14 14 15 16 17 18 18 18 18 18 16 15 14 14 15 16 17 17 17 18 18 18 16 15 15 15 16 17 18 18 18 18 17 17 16 15 14 14 14 14 13 12 13 13 14 14 14 14 14 13 13 12 12 12 12
9 8 8 7 6 6 5 5 4 3 2 1 1 1 2 2 2 2 4 6 5 5 6 8 8 8 9 9 10 12 12 13 13 13 14 15 17 18 19 20 19 18 17 16 16 15 16 17 17 18 18 18 18 17 16 17 17 16 16 17 17 18 18 17 17 17 16 15 15 15 14 14 13 13 13 13 13 14 14 13 13 13 13 13 13 13
10 10 11 9 8 7 7 6 5 4 3 2 2 3 2 1 1 2 2 5 5 4 6 7 6 7 8 8 10 10 11 11 11 11 12 13 14 16 18 20 21 20 19 19 18 17 16 16 17 18 18 19 19 19 19 18 18 17 17 16 16 17 18 18 17 16 16 15 15 15 15 14 13 13 13 13 13 13 13 13 13 13 14 14 14 14
11 11 11 11 10 10 9 8 6 5 4 4 4 4 3 2 1 2 2 3 4 4 6 6 6 8 8 9 10 10 10 10 11 11 11 11 12 13 14 17 20 22 22 21 21 20 19 18 17 18 19 19 19 20 21 20 19 18 18 17 16 17 19 19 17 16 16 16 16 15 15 14 13 13 13 13 13 13 13 13 13 14 14 14 14 15
13 11 11 12 12 11 11 9 9 8 6 6 6 5 4 3 2 2 3 3 3 4 6 5 6 7 7 8 9 10 10 11 11 12 11 11 11 11 11 13 17 21 23 24 23 23 22 21 19 18 19 19 19 20 21 22 21 20 20 19 17 16 18 19 19 19 18 17 17 16 16 15 14 13 13 13 14 14 13 13 13 14 14 14 15 15
15 14 13 14 12 11 13 12 12 12 9 8 8 7 6 4 4 4 4 4 4 5 6 5 5 8 8 8 9 9 11 11 11 11 12 12 12 11 11 11 13 16 20 23 25 25 24 23 22 21 20 19 19 19 20 21 22 22 22 21 18 17 18 19 20 21 20 19 18 17 17 16 15 14 14 14 14 14 13 13 13 14 14 15 15 15
16 15 15 15 11 12 15 14 14 14 11 9 9 8 7 6 5 4 4 6 5 6 7 6 6 10 11 10 9 10 10 10 10 11 11 12 12 12 12 12 12 13 16 20 23 25 26 25 24 23 22 21 20 20 19 20 23 23 24 23 21 18 18 19 21 22 22 21 20 19 18 17 17 15 15 14 14 14 14 14 14 14 14 14 14 15
16 16 16 16 14 14 15 13 15 16 14 12 10 9 9 7 6 5 6 7 7 7 8 8 7 10 11 11 11 11 11 11 11 11 12 12 13 13 13 12 12 13 14 16 19 22 25 26 26 25 25 24 22 21 20 21 22 22 23 24 22 20 19 20 21 22 23 22 21 21 20 19 18 17 16 16 15 15 15 15 15 15 14 14 14 15
16 17 17 17 15 16 15 15 18 19 16 14 12 10 9 9 8 8 8 8 8 8 9 9 9 10 11 12 12 11 11 12 12 13 13 13 13 13 14 14 13 13 14 15 17 18 21 24 25 26 26 26 25 23 22 21 21 21 23 25 25 23 21 22 22 22 23 23 23 22 21 20 19 19 18 17 17 17 16 16 16 16 16 15 15 15
18 18 18 17 16 16 15 16 18 18 15 14 13 11 10 10 9 9 9 8 8 9 10 10 9 9 10 12 13 12 11 12 13 14 14 14 13 14 14 14 14 14 14 15 16 17 18 20 22 24 26 27 27 26 24 22 22 22 22 24 26 26 24 23 23 23 22 23 24 23 22 22 21 20 20 19 19 19 18 18 17 17 17 17 17 17
19 19 18 18 17 16 15 15 15 15 14 13 12 11 11 12 10 10 10 10 11 11 12 12 10 9 12 14 14 13 12 12 13 14 15 15 14 14 14 15 15 15 14 15 16 17 17 17 19 21 24 26 28 29 27 25 23 23 23 24 25 27 27 26 25 23 23 23 23 23 23 22 22 22 22 22 21 21 20 19 19 18 18 19 19 19
21 20 19 20 19 17 15 14 12 12 13 13 13 12 12 13 12 12 13 14 15 14 14 15 14 15 18 17 14 13 12 12 13 14 15 15 15 15 15 15 16 16 15 15 16 18 18 17 18 19 21 24 27 28 29 28 25 23 23 24 26 27 28 28 26 24 24 24 23 23 23 23 23 23 23 24 23 23 22 21 21 20 20 20 20 20
22 21 20 21 21 20 18 15 12 13 14 14 15 14 14 16 16 16 16 17 17 17 17 19 17 17 19 19 16 14 12 12 13 14 15 16 16 16 16 16 16 17 17 17 17 18 19 19 19 19 21 22 24 27 28 29 27 25 24 24 26 27 29 30 28 26 26 25 23 23 24 24 24 24 24 25 25 25 24 23 22 21 21 22 22 22
22 22 22 21 21 22 20 18 17 16 16 16 17 17 17 18 19 19 20 20 20 20 21 22 20 19 21 21 18 14 12 13 13 14 15 16 17 17 17 17 17 17 18 18 18 18 19 20 20 20 21 22 22 24 26 27 28 27 25 24 25 26 29 31 31 28 27 25 24 24 25 25 25 25 25 25 26 26 26 25 24 23 23 23 23 23
22 24 24 21 21 22 22 21 21 20 19 19 20 20 20 21 22 22 23 23 23 23 24 24 23 23 23 21 19 16 13 13 15 15 16 16 18 19 19 19 19 18 18 18 18 19 20 21 22 21 21 22 22 22 24 25 27 27 26 25 25 25 27 29 32 32 29 26 25 25 26 26 26 26 27 26 26 27 27 27 27 25 24 24 24 24
23 26 25 21 22 25 24 23 24 23 23 23 23 22 22 22 23 24 25 25 25 25 25 25 24 24 23 21 22 20 15 13 15 16 17 17 18 20 21 21 21 20 19 19 19 19 20 21 23 23 22 22 22 22 23 24 25 26 26 25 25 25 25 26 30 33 33 29 27 27 27 27 27 27 28 28 28 27 27 28 28 27 26 25 26 26
25 27 25 23 24 26 25 24 24 24 25 25 24 23 22 22 23 24 25 25 25 24 25 24 23 24 23 22 23 23 18 16 15 16 18 19 19 19 20 22 22 22 21 20 20 20 20 21 22 24 25 23 22 22 22 23 24 25 25 24 24 24 24 24 26 31 35 34 31 29 29 28 28 28 28 29 29 29 29 29 28 28 27 27 27 27
28 27 25 25 25 27 27 25 24 26 27 27 25 22 22 22 22 23 23 23 23 23 23 23 23 23 23 22 24 24 21 19 17 17 19 20 20 20 20 20 22 22 22 22 21 20 21 21 22 23 25 25 24 22 22 23 24 25 25 25 24 23 23 23 24 27 32 36 36 34 31 30 29 29 29 29 30 30 30 30 29 29 29 29 29 28
29 27 27 27 25 27 28 26 24 28 29 27 24 21 21 21 20 20 21 21 21 21 21 22 23 23 23 24 25 24 22 20 18 18 19 21 21 21 20 20 21 21 23 23 22 22 21 22 22 22 24 25 25 24 23 23 24 25 25 25 25 24 23 23 23 24 28 33 37 37 35 33 31 30 30 30 30 31 31 31 31 30 30 30 30 29
30 29 30 28 26 28 29 25 26 30 29 25 23 21 20 20 19 18 19 19 20 20 20 21 22 22 23 24 25 24 23 22 20 20 21 21 22 22 22 21 20 20 22 23 23 23 22 22 22 22 23 24 26 26 25 23 23 25 26 26 26 25 25 24 24 25 26 29 33 36 38 38 35 32 31 31 31 31 31 31 32 32 32 32 31 31
31 31 31 29 29 30 29 26 29 31 27 24 24 23 21 20 19 18 19 19 19 19 19 19 20 21 22 23 24 24 23 23 22 22 22 22 23 23 23 22 21 19 20 21 23 24 23 23 23 23 23 23 25 26 26 25 24 24 25 26 27 26 26 25 25 25 26 28 30 33 37 39 39 36 34 32 32 31 31 31 32 33 34 34 33 33
32 31 29 29 30 30 29 29 30 29 25 24 24 23 22 21 19 18 19 19 18 18 19 19 19 20 20 21 22 22 22 23 22 22 22 23 22 22 23 23 22 20 19 19 21 23 23 23 23 23 24 23 24 25 26 26 25 24 25 26 27 27 27 27 27 27 27 27 28 30 34 38 40 40 38 35 33 32 31 31 32 33 34 34 35 35
32 31 30 29 29 30 30 30 30 28 26 24 22 21 21 21 19 19 19 18 18 18 19 20 20 20 20 20 21 21 21 20 20 20 21 22 22 21 22 22 22 21 19 19 20 21 21 23 23 23 23 24 24 24 26 26 26 26 26 26 26 27 27 28 29 28 27 27 28 28 31 35 39 41 41 39 36 34 33 33 33 33 33 34 34 35
31 31 32 31 31 32 31 31 31 29 27 25 24 23 21 20 20 21 19 18 19 19 19 20 20 20 20 20 20 21 20 17 18 19 20 21 21 21 20 21 21 21 20 19 19 20 20 21 22 22 22 23 24 24 25 27 27 27 27 27 27 27 28 28 29 29 28 28 28 28 28 30 34 39 41 41 39 37 36 36 35 35 35 35 35 34
33 33 34 33 33 34 32 30 31 30 29 27 25 22 21 20 22 23 20 19 19 17 17 19 19 19 20 20 20 21 19 17 18 19 19 20 20 20 19 20 20 20 20 20 20 20 20 20 21 21 22 23 24 24 25 27 28 29 29 29 28 28 28 29 28 28 29 29 29 29 29 29 31 34 38 40 40 41 40 40 40 40 38 37 35 34
35 35 35 34 34 33 31 30 30 30 30 29 24 22 22 23 24 24 21 20 19 16 16 18 18 18 19 19 20 21 20 19 19 19 19 20 20 19 19 19 19 20 20 21 21 21 21 20 20 21 21 22 23 25 26 27 29 30 30 30 30 29 29 29 29 29 29 30 30 29 30 30 30 31 34 37 40 42 44 44 44 43 42 40 37 36
35 36 36 35 34 32 31 31 29 29 31 28 23 22 24 24 24 24 22 21 20 17 17 18 17 18 18 19 20 21 21 21 21 19 19 19 19 19 19 19 19 20 20 21 21 21 21 21 20 20 20 21 22 24 26 27 29 31 31 31 31 31 30 30 30 30 30 30 30 30 30 30 31 32 33 35 37 39 42 44 45 46 45 43 40 39
36 36 35 35 35 34 35 35 32 31 33 27 21 23 25 24 25 25 24 23 21 18 18 18 18 18 19 19 20 22 23 23 22 20 19 18 18 19 18 18 19 20 21 21 21 21 21 21 20 20 20 20 21 22 25 27 28 30 32 32 32 32 32 31 31 31 30 30 30 30 30 30 31 32 33 35 36 37 38 41 44 46 46 46 44 43
37 35 35 37 38 37 37 37 35 35 36 30 25 26 27 26 27 28 27 26 23 20 20 20 19 19 19 19 21 22 24 24 23 21 19 18 18 18 18 18 19 20 20 21 21 21 21 20 20 19 19 19 19 20 23 25 27 30 31 33 33 33 33 33 32 32 31 31 31 31 31 31 31 31 32 33 35 34 35 37 41 44 46 48 48 46
39 37 37 40 40 36 36 39 38 36 34 32 30 30 30 30 31 31 29 27 25 23 22 21 21 21 20 21 22 23 25 25 23 22 21 19 18 18 18 18 19 19 20 20 21 20 20 19 19 19 18 18 18 19 20 23 25 28 30 32 33 34 34 34 34 33 32 31 31 31 31 31 30 30 31 32 33 32 32 34 38 42 45 48 49 49
40 38 38 40 39 37 38 40 40 37 35 34 34 33 32 33 33 32 31 30 27 25 24 23 22 21 21 22 23 24 26 26 24 23 22 20 18 18 18 18 19 20 20 20 20 20 20 19 19 18 18 18 18 18 19 20 22 25 28 31 33 34 34 34 34 34 33 32 32 31 31 31 30 30 30 31 31 31 32 34 36 38 41 45 48 48
40 39 39 40 38 38 40 41 41 40 38 37 37 36 35 35 34 33 32 31 28 26 25 23 21 21 22 23 24 25 26 26 25 24 23 21 18 17 18 18 19 20 20 20 20 20 20 20 19 19 19 19 19 18 18 18 19 22 25 28 31 34 34 34 34 35 35 34 33 32 32 31 31 31 31 30 30 31 33 34 35 36 38 41 43 44
39 39 41 42 40 40 40 41 41 41 39 38 37 37 37 36 35 34 33 31 29 26 24 22 22 22 23 24 25 25 25 25 25 25 23 22 20 18 18 18 19 19 20 20 20 20 20 20 19 19 19 19 19 18 18 18 18 19 21 24 28 32 34 34 33 34 36 36 35 34 33 32 31 31 31 31 31 32 33 34 35 36 37 37 38 41
35 36 40 43 43 42 42 42 41 40 39 39 39 39 38 37 36 35 33 31 29 27 25 24 24 24 24 25 26 26 25 26 26 25 24 22 20 19 19 18 18 19 19 19 20 20 20 20 19 19 19 19 19 19 18 18 17 17 19 21 24 28 32 33 33 33 34 36 36 36 35 34 32 32 32 32 32 33 33 34 36 38 39 38 38 39
32 34 36 38 40 42 44 45 43 41 41 42 42 41 40 38 36 35 33 31 29 27 26 26 25 26 26 26 26 26 26 26 26 25 24 22 21 20 19 19 18 18 18 19 19 19 19 19 19 20 20 19 19 19 19 18 17 17 17 19 21 25 28 31 32 32 33 34 35 36 35 34 33 32 32 33 34 35 35 35 36 38 40 40 40 41
33 34 35 36 38 41 43 44 42 42 43 44 43 42 42 40 38 35 34 32 30 28 28 28 28 28 28 27 27 26 26 26 26 25 24 22 21 20 19 19 18 18 18 19 19 19 19 19 19 20 20 19 19 19 19 18 18 17 17 17 19 21 25 28 29 29 30 32 33 34 35 34 33 33 32 33 35 36 37 37 37 38 39 40 42 43
Wind_Direction
187 184 182 188 196 201 204 207 216 219 214 220 221 218 212 200 221 229 211 207 209 206 209 217 219 203 200 207 219 205 191 193 202 203 202 199 195 199 207 212 211 203 193 183 176 177 175 179 189 182 176 176 171 167 170 174 176 175 171 168 163 160 159 156 154 152 151 150 148 145 143 140 135 130 127 126 129 135 141 147 152 153 151 151 151 150
181 182 185 193 198 201 203 207 214 211 202 220 224 218 216 207 225 233 218 212 219 224 227 227 223 178 186 200 209 192 185 198 213 211 210 207 202 202 205 209 212 205 195 189 184 183 180 182 193 190 181 180 176 170 169 170 174 175 171 169 165 161 161 160 158 157 156 154 152 150 148 145 140 135 130 127 129 136 143 149 154 157 156 155 156 156
178 186 191 198 200 203 207 208 213 205 187 213 228 221 217 212 226 239 231 219 215 226 240 234 227 210 193 206 207 183 181 200 220 219 216 215 211 209 207 209 212 207 197 194 189 186 187 186 193 195 188 183 181 175 172 170 171 173 171 168 168 166 165 165 164 163 162 160 159 158 156 152 146 140 135 132 132 138 145 152 157 162 163 162 163 165
180 194 197 202 207 211 212 210 212 194 179 206 225 223 222 216 224 240 240 230 215 214 228 230 226 225 217 226 237 220 200 208 225 230 230 228 221 216 211 210 214 211 202 198 195 191 192 191 193 198 196 187 183 182 179 173 170 170 170 169 171 172 171 172 173 171 170 169 168 167 163 157 152 145 140 138 138 140 145 152 158 164 169 170 170 172
193 204 205 209 215 216 215 216 209 185 176 209 226 226 227 222 222 230 236 237 224 211 217 214 217 227 224 226 245 251 240 231 232 238 247 246 234 226 220 212 213 215 207 200 201 201 196 194 194 196 199 193 185 186 186 181 176 171 171 171 173 177 179 181 182 181 180 179 179 176 168 159 154 149 146 145 145 144 146 150 155 163 171 176 176 177
200 203 205 208 212 213 213 214 205 193 184 218 237 233 231 230 227 227 233 240 237 231 228 211 210 226 220 211 221 238 244 243 241 243 251 259 250 241 234 219 210 214 216 207 205 206 201 199 197 192 196 197 188 187 190 190 186 180 175 173 174 179 184 187 188 189 190 192 190 184 175 165 159 158 155 154 154 153 151 150 153 158 167 175 177 177
187 184 187 187 185 187 199 206 210 203 181 211 239 233 232 238 236 237 240 238 233 235 234 215 209 224 222 211 215 224 234 244 247 246 247 254 256 252 246 233 214 209 219 219 214 212 207 206 203 195 194 197 191 186 190 195 193 189 185 179 177 181 184 188 191 195 198 200 200 194 187 180 176 172 168 166 167 165 161 159 158 159 164 170 171 173
180 178 175 166 160 160 174 188 209 197 178 211 234 226 231 242 243 252 254 239 229 231 237 230 215 220 231 221 218 222 227 238 247 250 249 250 250 249 251 246 225 210 214 224 223 218 215 214 210 201 197 199 195 188 188 195 197 195 194 191 188 187 187 188 192 196 200 202 204 203 198 196 196 190 183 181 179 176 173 171 171 169 169 170 170 169
179 177 169 156 148 168 188 190 196 190 188 220 230 218 234 246 248 261 264 252 243 231 241 247 227 221 235 232 224 224 225 229 241 248 249 249 247 245 248 254 243 223 213 221 227 224 222 218 211 204 202 203 201 194 188 192 197 197 198 199 199 197 196 195 194 196 199 201 204 205 204 206 209 207 202 197 192 188 186 182 182 183 180 178 177 172
171 171 167 160 164 190 205 197 182 180 195 230 235 227 241 249 254 264 266 262 271 210 234 250 241 227 232 236 228 226 228 227 232 240 243 247 248 247 248 256 260 241 221 218 225 228 226 221 211 205 207 206 204 201 195 193 196 198 199 202 205 205 204 204 203 201 201 202 204 206 208 212 216 216 216 212 206 202 200 196 193 193 192 188 185 179
163 164 171 175 184 203 211 202 185 178 202 234 241 237 246 257 262 263 273 265 199 221 237 248 253 231 224 239 232 228 232 230 231 236 237 243 249 252 252 252 260 255 230 218 219 227 230 227 217 211 213 210 207 209 205 198 197 198 199 202 206 208 209 209 209 209 208 208 209 209 212 216 219 220 221 220 217 212 210 209 206 203 201 199 194 186
163 168 184 191 198 208 193 185 289 290 267 260 249 232 234 262 273 269 278 250 198 237 246 250 256 220 203 233 234 230 235 233 233 238 237 239 246 252 258 256 257 258 240 221 217 223 229 231 227 221 217 212 212 217 213 205 201 200 200 201 205 208 210 211 212 213 214 214 215 215 216 218 219 220 221 222 220 217 215 213 212 210 208 206 201 193
182 186 193 199 205 196 163 197 304 315 302 287 243 208 200 241 249 240 245 230 221 242 247 251 248 211 204 230 232 232 238 236 234 238 240 239 240 246 254 259 259 258 252 236 225 223 225 229 232 231 225 217 218 222 217 211 208 205 203 202 204 207 209 211 213 214 216 217 218 218 219 220 220 219 220 220 219 220 219 217 214 212 211 210 206 200
197 207 197 191 197 173 147 232 263 279 279 255 222 174 161 249 259 275 273 271 270 257 252 256 251 228 226 237 235 238 241 238 234 235 239 240 240 240 244 251 254 252 251 247 239 232 227 227 231 235 235 228 225 226 222 217 215 212 209 207 205 205 208 211 213 214 216 217 218 219 220 221 221 219 218 218 218 221 222 219 216 214 211 211 210 205
192 232 227 187 180 156 151 206 221 247 264 249 242 178 163 226 231 231 261 265 263 258 259 267 263 244 235 240 246 246 244 242 238 237 239 240 239 237 237 241 245 245 244 244 243 239 234 231 231 234 237 237 234 233 231 228 225 221 217 213 210 207 208 211 213 215 217 217 217 217 219 220 219 218 215 214 216 220 221 219 217 216 215 213 212 210
180 211 220 182 171 160 167 212 206 227 265 255 299 227 173 211 215 208 231 245 253 263 269 269 264 251 241 249 259 257 252 249 244 242 242 241 239 237 234 234 238 241 241 239 241 241 239 236 233 233 236 239 241 241 240 239 238 233 227 222 218 213 211 211 214 217 218 218 218 218 218 217 215 214 213 212 213 216 217 216 216 217 217 216 214 214
179 221 222 187 185 184 185 216 204 187 215 200 333 276 190 207 255 242 251 271 285 284 269 263 266 260 247 250 258 258 260 259 252 246 242 241 240 237 234 233 234 239 241 241 240 240 241 240 236 234 235 238 243 244 244 243 242 241 238 234 229 225 220 215 215 218 219 219 219 221 220 216 212 211 212 211 212 214 214 213 214 216 218 218 217 217
184 222 228 204 202 206 202 214 215 188 184 201 233 250 238 224 340 341 301 292 300 291 267 265 270 263 249 250 254 254 258 260 254 244 236 237 239 237 235 234 233 235 238 242 243 241 241 241 239 238 235 235 238 241 243 244 244 243 242 240 237 236 233 226 221 220 222 224 224 224 225 220 212 209 210 211 210 212 212 211 214 216 218 219 218 218
197 214 232 222 213 218 220 225 233 219 197 211 227 244 273 277 277 332 329 299 304 301 287 283 278 264 249 248 252 248 246 246 244 240 235 235 237 236 235 234 234 233 234 238 242 243 241 240 239 240 239 236 234 236 241 244 245 244 243 240 237 238 238 235 231 225 224 228 229 229 230 227 218 210 209 210 210 210 210 210 213 215 217 218 217 217
213 215 230 228 218 222 231 236 244 239 219 221 236 241 257 267 271 294 296 283 293 295 290 298 301 282 255 245 249 244 239 237 238 241 242 241 241 239 237 235 234 235 234 234 238 242 243 241 239 239 240 240 238 238 241 243 242 240 242 242 239 238 238 236 234 230 226 227 230 232 233 232 226 217 211 210 209 209 208 208 210 212 214 215 215 215
216 217 229 235 228 229 234 229 231 237 228 224 238 246 247 246 247 258 273 284 299 297 289 293 303 287 264 252 251 243 239 239 240 245 249 250 249 246 244 240 238 237 236 235 235 239 242 242 241 240 240 241 241 241 243 246 243 239 241 243 242 242 241 237 235 232 228 225 227 231 233 234 231 224 216 212 211 210 207 207 208 209 211 213 213 212
219 219 229 238 234 232 235 230 227 234 234 230 239 252 255 249 245 252 276 286 287 294 295 294 288 277 268 262 257 246 241 241 243 248 253 255 256 253 251 248 245 243 241 238 236 236 239 241 241 240 241 241 241 241 242 246 246 243 241 240 240 240 241 239 237 234 231 226 224 227 230 233 233 229 223 217 214 213 209 207 207 206 208 211 212 211
223 220 225 233 234 237 243 239 231 231 233 235 237 244 254 263 265 267 277 282 283 286 288 290 290 284 277 271 265 257 250 247 248 251 254 256 258 258 256 252 249 248 246 242 239 237 238 240 241 240 241 242 242 242 242 245 248 246 241 238 239 239 238 237 236 235 234 229 225 224 225 229 232 232 229 222 217 216 213 210 208 207 208 209 210 211
226 225 228 233 236 242 246 242 236 233 233 238 240 241 254 266 268 267 270 276 285 288 285 292 301 295 284 279 278 272 264 257 255 254 254 256 258 259 258 256 252 250 248 244 242 240 239 240 242 241 241 241 242 243 243 245 248 246 240 238 240 240 238 236 234 234 235 233 229 225 223 225 229 231 231 228 223 220 217 214 212 209 209 209 210 212
230 230 234 236 236 239 241 237 235 233 231 236 241 244 254 262 263 268 266 263 276 285 284 292 299 289 279 284 288 283 274 267 260 256 255 257 259 260 259 259 258 254 251 245 240 240 241 241 242 242 241 241 242 243 243 245 246 244 240 237 239 241 242 241 237 235 236 236 234 231 226 224 226 228 231 231 229 226 222 220 218 215 214 213 213 216
237 236 239 242 239 237 238 235 231 229 227 233 240 247 257 262 263 271 273 269 275 280 278 282 282 271 275 286 291 289 283 275 266 259 256 256 258 258 258 259 260 258 255 248 239 237 239 241 243 243 241 240 240 242 243 244 245 244 241 237 237 239 241 243 242 239 239 239 239 237 233 228 226 227 230 231 231 230 227 225 223 221 219 218 218 220
243 245 247 250 248 242 243 246 241 236 237 240 245 252 262 266 268 275 281 280 280 282 281 279 276 272 276 283 287 291 289 279 271 264 259 255 253 254 255 256 257 259 258 252 242 237 237 239 242 243 241 238 237 239 242 244 245 246 245 241 239 237 236 238 241 241 241 241 241 240 239 236 231 228 229 231 232 233 231 230 229 227 226 224 224 225
246 251 251 252 253 250 252 259 255 248 249 253 258 264 270 275 276 277 279 279 280 283 281 279 277 273 275 280 282 284 284 280 275 269 262 257 252 251 253 254 255 257 259 256 248 240 237 239 243 245 244 241 237 236 239 242 244 246 247 246 244 242 237 234 235 238 240 241 241 240 240 240 238 233 231 232 233 235 234 232 231 231 231 230 230 230
245 250 249 247 250 252 253 256 256 256 259 262 266 269 271 274 275 275 275 275 277 278 277 277 276 271 272 278 279 275 276 279 280 273 265 258 253 252 252 253 253 254 256 258 255 247 240 239 242 245 247 246 241 237 237 239 242 244 247 248 248 247 243 237 233 234 239 241 240 240 240 240 240 239 236 234 235 236 237 235 233 232 233 234 235 235
244 247 248 248 252 254 253 254 255 257 261 262 264 267 269 271 271 271 273 273 273 274 273 272 272 270 271 275 272 269 272 277 280 279 272 263 256 253 253 253 254 254 256 257 257 253 246 241 241 242 244 247 246 242 238 238 240 243 246 249 249 249 247 241 235 232 236 239 240 240 241 241 241 241 240 238 237 237 238 239 237 234 232 234 237 239
246 249 252 253 255 256 254 255 256 255 257 259 259 261 265 269 271 270 271 271 271 271 269 268 269 270 271 271 268 269 272 273 275 279 278 272 264 257 255 256 255 255 255 256 255 254 249 244 241 241 242 243 245 245 242 239 240 242 244 247 250 250 249 245 239 234 235 237 238 239 240 241 241 241 241 240 239 238 238 240 240 238 235 234 236 239
248 252 255 254 257 259 257 255 257 258 258 257 257 259 264 268 270 271 269 269 269 269 268 268 267 267 268 268 267 270 272 272 272 274 276 276 273 266 260 258 257 255 254 254 255 254 251 246 242 241 242 242 243 244 244 242 240 241 242 244 248 250 249 247 242 237 236 237 238 238 238 239 240 240 240 240 240 239 238 239 240 240 238 236 236 237
248 251 251 251 254 259 260 258 258 261 261 258 256 260 266 270 272 273 271 270 269 268 268 267 264 265 267 268 268 271 274 275 273 271 272 275 277 274 268 261 257 256 253 251 253 254 253 250 245 241 241 242 243 244 244 242 241 240 240 240 242 245 246 245 243 239 236 235 237 238 239 239 238 239 240 240 240 240 239 239 239 239 239 238 237 237
247 248 250 251 251 254 257 258 259 261 261 260 259 263 270 275 277 276 275 273 270 268 268 266 264 264 266 267 268 272 274 275 274 271 271 273 276 277 275 268 261 256 253 250 250 252 254 253 250 245 241 242 243 243 243 243 242 240 239 238 238 240 241 242 241 239 235 234 235 237 239 240 238 237 238 238 239 241 241 240 239 239 239 239 239 239
245 248 250 252 250 251 255 256 258 261 262 263 266 268 271 276 279 278 274 271 268 267 267 266 265 265 265 266 268 271 273 274 273 271 272 274 277 279 279 275 268 260 254 250 248 249 252 253 253 249 244 241 241 242 243 243 243 241 239 238 237 237 238 240 240 239 237 235 234 236 238 238 238 237 237 237 238 239 241 242 242 241 241 240 240 239
244 247 248 248 248 252 255 255 257 262 266 268 270 270 271 275 276 274 271 267 264 264 265 267 267 265 265 266 267 269 270 271 272 273 275 277 279 280 279 276 272 266 258 251 247 247 249 251 252 252 248 244 242 242 243 243 244 244 242 239 238 236 236 238 240 240 238 237 236 236 237 237 236 236 236 236 237 237 239 241 242 243 243 242 241 240
246 245 244 245 248 251 255 258 260 262 263 263 265 267 269 271 270 267 268 268 266 266 268 270 271 270 268 267 267 268 269 271 275 278 279 280 281 281 279 275 272 269 264 255 250 247 248 250 251 252 251 248 244 242 243 243 244 246 245 243 240 237 235 235 237 239 240 239 238 238 239 238 236 234 234 236 237 237 238 239 241 243 244 244 244 243
247 245 243 246 249 249 251 256 257 256 256 256 258 260 261 264 264 261 262 264 265 268 271 272 274 274 272 269 269 269 269 273 276 277 278 282 285 285 281 274 269 268 266 261 255 252 251 251 251 251 251 251 247 244 243 243 245 247 248 247 243 240 237 236 236 237 239 241 241 241 241 239 237 235 234 235 237 238 239 239 240 241 243 244 245 245
244 245 244 245 248 248 248 250 252 255 256 256 256 257 259 263 266 263 262 263 263 264 269 271 273 275 274 273 271 270 270 271 272 273 275 280 285 286 281 272 266 264 263 261 259 257 256 255 253 252 251 251 251 248 245 244 245 246 248 248 246 242 240 238 237 237 238 240 242 242 242 240 238 236 236 237 239 240 241 241 241 241 242 243 244 245
240 241 243 244 246 247 248 249 252 254 254 253 256 260 262 268 270 267 266 265 262 261 262 266 271 274 275 276 275 273 271 268 266 270 275 280 285 285 278 269 263 260 258 258 258 259 259 258 257 255 254 253 252 250 248 246 245 246 247 248 248 245 243 242 240 239 238 239 240 241 242 242 240 237 237 238 240 242 243 242 241 241 242 243 243 244
238 239 241 243 245 248 249 249 251 252 251 252 255 258 262 266 267 266 265 264 263 263 260 260 265 272 276 279 278 276 273 269 266 270 277 282 285 283 274 265 259 255 254 255 257 258 259 259 259 259 258 256 255 253 250 247 246 246 247 247 248 247 246 245 244 242 241 240 240 241 242 243 242 241 240 240 240 242 242 243 242 242 243 243 243 243
238 238 239 241 243 247 249 247 246 248 251 251 248 250 256 260 261 262 264 263 263 262 258 257 261 267 272 279 281 280 279 275 272 274 279 284 284 280 272 263 256 253 252 253 256 257 258 259 259 260 261 260 258 256 254 250 248 247 246 246 246 247 246 246 247 246 244 242 242 242 242 243 244 244 244 243 243 243 243 242 242 242 242 243 243 243
238 239 240 242 243 244 246 246 244 246 249 248 245 249 257 261 263 265 265 263 261 260 257 257 258 260 265 273 279 281 280 278 276 276 279 282 283 280 273 262 255 253 252 253 255 256 258 258 258 259 261 262 262 260 257 254 250 247 247 246 245 245 245 246 247 248 247 246 244 244 243 243 244 245 246 246 246 245 244 243 242 241 241 243 243 243
240 239 239 241 241 241 244 248 247 246 249 251 251 254 259 262 264 265 264 264 264 263 260 259 258 257 261 267 273 277 278 277 277 276 277 280 282 281 275 265 257 253 252 253 254 255 258 259 259 260 262 264 265 263 260 257 253 249 247 246 245 245 244 244 245 247 249 248 247 246 245 244 244 246 248 249 248 248 246 244 242 240 240 241 243 243
241 239 237 240 242 242 244 248 248 248 251 255 255 255 257 260 262 263 265 265 266 265 263 261 259 259 261 266 271 274 275 276 277 276 275 277 280 281 278 269 260 255 253 252 253 255 258 261 262 265 268 269 270 269 265 261 257 252 248 245 244 244 244 243 243 245 247 248 247 247 248 248 247 246 248 250 251 252 249 246 243 241 239 241 243 243
244 242 240 241 243 242 243 246 249 252 253 254 255 255 257 259 261 263 264 264 264 265 265 263 261 261 263 267 271 274 275 276 277 276 273 273 277 280 279 272 264 259 256 254 254 256 260 263 265 269 272 274 274 274 273 269 264 258 252 247 244 243 243 243 242 242 244 246 247 248 249 251 252 251 249 250 251 252 251 249 246 243 241 242 243 244
245 243 242 242 242 242 243 245 247 249 250 251 253 255 257 258 260 261 261 261 262 264 264 264 264 264 266 270 273 275 275 276 276 274 272 270 273 277 277 273 267 262 259 258 257 259 262 264 266 269 272 274 276 278 278 276 271 265 259 251 246 243 243 243 242 241 242 244 246 248 249 252 254 254 253 251 251 251 251 250 248 246 243 242 243 244
245 244 244 242 241 242 245 246 246 247 249 250 251 252 253 256 258 259 260 260 261 262 264 267 268 268 269 272 274 276 277 276 275 272 269 267 268 272 274 273 269 264 261 260 259 261 262 263 265 267 270 272 275 279 280 280 278 273 267 258 251 245 243 243 242 241 241 243 245 247 248 251 254 256 256 254 252 251 251 250 249 247 245 242 242 244
244 245 245 243 242 242 245 247 248 248 248 250 251 250 251 253 255 257 258 259 261 264 267 269 269 270 272 274 275 277 278 277 274 270 266 264 265 268 269 269 268 266 263 262 261 262 262 263 264 266 268 271 275 278 280 281 282 279 273 266 257 250 245 244 243 242 241 242 243 245 247 250 253 257 258 257 255 254 252 251 250 249 247 244 243 245
244 244 245 245 244 242 243 244 246 246 246 247 248 248 250 252 255 256 257 259 261 264 267 268 269 272 274 275 275 277 278 275 271 268 263 261 262 265 265 265 266 265 264 263 263 263 263 264 265 265 267 271 275 277 278 280 281 280 277 272 264 255 248 245 244 243 242 242 243 244 246 248 252 256 259 259 258 257 255 253 251 250 248 245 242 243
243 244 245 245 244 244 243 243 243 243 243 244 245 246 247 250 253 255 256 258 261 263 266 269 272 274 274 273 273 276 276 272 267 264 261 260 260 262 264 264 265 266 265 264 264 264 265 265 266 267 269 271 273 274 276 278 280 281 279 276 270 262 254 248 246 245 244 243 243 244 245 246 250 254 258 260 259 256 253 251 251 250 249 246 242 240